Weather History for KOSC - August, 2013

Change the Weather History Date:

Thursday, August 15, 2013

  Actual Average Record
Temperature  
Mean Temperature 60 °F -  
Max Temperature 75 °F 74 °F 91 °F (2003)
Min Temperature 45 °F 55 °F 42 °F (2004)
Degree Days  
Heating Degree Days 5    
Growing Degree Days 10 (Base 50)    
Moisture  
Dew Point 50 °F    
Average Humidity 69    
Maximum Humidity 92    
Minimum Humidity 42    
Precipitation  
Precipitation 0.00 in - - ()
Sea Level Pressure  
Sea Level Pressure 30.09 in    
Wind  
Wind Speed 4 mph (SW)    
Max Wind Speed 15 mph    
Max Gust Speed 21 mph    
Visibility 10 miles    
Events      
Averages and records for this station are not official NWS values.
T = Trace of Precipitation, MM = Missing Value Source: NWS Daily Summary

Daily Weather History Graph

Daily Weather History Graph

Search for Another Location

Airport or City:

Trip Planner

Search our weather history database for the weather conditions in past years. The results will help you decide how hot, cold, wet, or windy it might be!

Date:

Astronomy

Aug. 15, 2013 Rise Set
Actual Time 6:36 AM EDT 8:38 PM EDT
Civil Twilight 6:05 AM EDT 9:09 PM EDT
Nautical Twilight 5:26 AM EDT 9:48 PM EDT
Astronomical Twilight 4:43 AM EDT 10:30 PM EDT
Moon 3:58 PM EDT (8/15) 12:41 AM EDT (8/15)
Length of Visible Light 15h 04m
Length of Day
14h 01m
Waxing Gibbous, 64% of the Moon is Illuminated
Aug 15
Waxing Gibbous
Aug 20
Full
Aug 28
Last Quarter
Sep 5
New
Sep 12
First Quarter

Hourly Weather History & Observations

Time (EDT) Temp. Dew Point Humidity Pressure Visibility Wind Dir Wind Speed Gust Speed Precip Events Conditions
12:14 AM 52.3 °F 49.5 °F 90% 30.11 in 10.0 mi Calm Calm - N/A   Clear
12:34 AM 50.0 °F 47.7 °F 92% 30.11 in 10.0 mi Calm Calm - N/A   Clear
12:54 AM 48.7 °F 45.9 °F 90% 30.12 in 10.0 mi Calm Calm - N/A   Clear
1:14 AM 50.4 °F 46.6 °F 87% 30.11 in 10.0 mi Calm Calm - N/A   Clear
1:34 AM 50.2 °F 46.2 °F 86% 30.11 in 10.0 mi Calm Calm - N/A   Clear
1:54 AM 48.9 °F 45.1 °F 87% 30.11 in 10.0 mi Calm Calm - N/A   Clear
2:14 AM 50.9 °F 46.6 °F 85% 30.11 in 10.0 mi Calm Calm - N/A   Clear
2:34 AM 47.8 °F 45.3 °F 91% 30.11 in 10.0 mi Calm Calm - N/A   Clear
2:54 AM 48.2 °F 45.1 °F 89% 30.10 in 10.0 mi Calm Calm - N/A   Clear
3:14 AM 49.3 °F 45.7 °F 87% 30.10 in 10.0 mi Calm Calm - N/A   Clear
3:34 AM 49.3 °F 45.3 °F 86% 30.10 in 10.0 mi Calm Calm - N/A   Clear
3:54 AM 46.4 °F 42.4 °F 86% 30.11 in 10.0 mi Calm Calm - N/A   Clear
4:14 AM 46.2 °F 43.3 °F 90% 30.11 in 10.0 mi Calm Calm - N/A   Clear
4:34 AM 45.9 °F 43.7 °F 92% 30.11 in 10.0 mi Calm Calm - N/A   Clear
4:54 AM 47.3 °F 44.6 °F 90% 30.10 in 10.0 mi Calm Calm - N/A   Clear
5:14 AM 47.8 °F 44.2 °F 87% 30.10 in 10.0 mi Calm Calm - N/A   Clear
5:34 AM 48.7 °F 44.6 °F 86% 30.11 in 10.0 mi Calm Calm - N/A   Clear
5:54 AM 46.8 °F 43.0 °F 87% 30.11 in 10.0 mi Calm Calm - N/A   Clear
6:14 AM 47.5 °F 43.9 °F 87% 30.11 in 10.0 mi Calm Calm - N/A   Clear
6:33 AM 47.1 °F 43.3 °F 87% 30.12 in 10.0 mi Calm Calm - N/A   Clear
6:54 AM 46.2 °F 43.2 °F 89% 30.12 in 10.0 mi Calm Calm - N/A   Clear
7:14 AM 47.5 °F 43.9 °F 87% 30.12 in 10.0 mi Calm Calm - N/A   Clear
7:33 AM 49.1 °F 44.6 °F 84% 30.13 in 10.0 mi Calm Calm - N/A   Clear
7:54 AM 50.7 °F 45.5 °F 82% 30.13 in 10.0 mi Calm Calm - N/A   Clear
8:14 AM 52.3 °F 46.9 °F 82% 30.13 in 10.0 mi Calm Calm - N/A   Clear
8:33 AM 56.5 °F 48.4 °F 74% 30.13 in 10.0 mi West 3.5 mph - N/A   Clear
8:54 AM 60.3 °F 48.7 °F 66% 30.13 in 10.0 mi West 4.6 mph - N/A   Scattered Clouds
9:14 AM 61.0 °F 47.7 °F 62% 30.13 in 10.0 mi West 6.9 mph - N/A   Scattered Clouds
9:33 AM 62.8 °F 47.8 °F 58% 30.12 in 10.0 mi West 5.8 mph - N/A   Clear
9:54 AM 64.9 °F 47.5 °F 53% 30.12 in 10.0 mi West 9.2 mph - N/A   Clear
10:14 AM 66.7 °F 47.3 °F 50% 30.12 in 10.0 mi West 12.7 mph - N/A   Clear
10:33 AM 68.4 °F 49.8 °F 51% 30.11 in 10.0 mi West 10.4 mph - N/A   Clear
10:54 AM 69.6 °F 50.2 °F 50% 30.11 in 10.0 mi WSW 9.2 mph - N/A   Clear
11:14 AM 71.2 °F 49.8 °F 47% 30.10 in 10.0 mi West 12.7 mph - N/A   Clear
11:33 AM 70.0 °F 50.0 °F 49% 30.10 in 10.0 mi WSW 12.7 mph 16.1 mph N/A   Scattered Clouds
11:54 AM 72.7 °F 50.5 °F 46% 30.10 in 10.0 mi WSW 4.6 mph - N/A   Mostly Cloudy
12:14 PM 73.4 °F 51.1 °F 45% 30.09 in 10.0 mi SW 9.2 mph 16.1 mph N/A   Mostly Cloudy
12:34 PM 73.4 °F 49.8 °F 43% 30.08 in 10.0 mi West 10.4 mph - N/A   Scattered Clouds
12:54 PM 75.2 °F 50.9 °F 42% 30.08 in 10.0 mi SSW 9.2 mph - N/A   Mostly Cloudy
1:14 PM 72.9 °F 51.1 °F 46% 30.07 in 10.0 mi WSW 10.4 mph - N/A   Scattered Clouds
1:34 PM 73.9 °F 51.1 °F 45% 30.07 in 10.0 mi SW 11.5 mph - N/A   Mostly Cloudy
1:54 PM 72.3 °F 51.4 °F 48% 30.06 in 10.0 mi SSW 11.5 mph - N/A   Overcast
2:14 PM 73.0 °F 52.7 °F 49% 30.06 in 10.0 mi South 11.5 mph 18.4 mph N/A   Scattered Clouds
2:34 PM 73.0 °F 53.4 °F 50% 30.06 in 10.0 mi SSW 13.8 mph - N/A   Mostly Cloudy
2:54 PM 71.2 °F 53.4 °F 53% 30.06 in 10.0 mi South 11.5 mph 18.4 mph N/A   Overcast
3:14 PM 72.3 °F 54.0 °F 52% 30.06 in 10.0 mi South 11.5 mph - N/A   Scattered Clouds
3:34 PM 71.1 °F 53.8 °F 54% 30.05 in 10.0 mi SSW 15.0 mph 20.7 mph N/A   Scattered Clouds
3:54 PM 70.3 °F 54.1 °F 56% 30.05 in 10.0 mi South 10.4 mph - N/A   Mostly Cloudy
4:14 PM 73.2 °F 54.5 °F 52% 30.05 in 10.0 mi South 12.7 mph 20.7 mph N/A   Scattered Clouds
4:34 PM 72.1 °F 54.9 °F 54% 30.04 in 10.0 mi SSW 13.8 mph 20.7 mph N/A   Mostly Cloudy
4:54 PM 72.9 °F 54.5 °F 52% 30.04 in 10.0 mi South 11.5 mph 19.6 mph N/A   Overcast
5:13 PM 72.9 °F 54.3 °F 52% 30.04 in 10.0 mi SSW 13.8 mph 19.6 mph N/A   Mostly Cloudy
5:34 PM 73.6 °F 54.5 °F 51% 30.04 in 10.0 mi SSW 9.2 mph 16.1 mph N/A   Mostly Cloudy
5:54 PM 73.6 °F 54.1 °F 50% 30.04 in 10.0 mi South 10.4 mph - N/A   Scattered Clouds
6:13 PM 73.4 °F 54.5 °F 51% 30.04 in 10.0 mi SSW 12.7 mph - N/A   Clear
6:34 PM 73.4 °F 54.5 °F 51% 30.04 in 10.0 mi South 9.2 mph - N/A   Clear
6:54 PM 71.8 °F 54.5 °F 54% 30.04 in 10.0 mi South 9.2 mph - N/A   Clear
7:13 PM 71.2 °F 54.7 °F 56% 30.04 in 10.0 mi SSW 8.1 mph - N/A   Clear
7:34 PM 70.9 °F 54.9 °F 57% 30.05 in 10.0 mi SSW 8.1 mph - N/A   Clear
7:54 PM 70.0 °F 54.7 °F 58% 30.05 in 10.0 mi South 6.9 mph - N/A   Clear
8:13 PM 69.3 °F 55.4 °F 61% 30.05 in 10.0 mi South 5.8 mph - N/A   Clear
8:34 PM 68.0 °F 55.6 °F 64% 30.06 in 10.0 mi South 5.8 mph - N/A   Clear
8:54 PM 67.3 °F 55.9 °F 67% 30.06 in 10.0 mi SSW 8.1 mph - N/A   Clear
9:13 PM 66.4 °F 56.3 °F 70% 30.07 in 10.0 mi SSW 3.5 mph - N/A   Clear
9:34 PM 64.6 °F 55.9 °F 74% 30.07 in 10.0 mi SW 3.5 mph - N/A   Clear
9:54 PM 63.7 °F 55.9 °F 76% 30.07 in 10.0 mi WSW 3.5 mph - N/A   Scattered Clouds
10:13 PM 61.9 °F 55.0 °F 78% 30.07 in 10.0 mi Calm Calm - N/A   Clear
10:34 PM 58.8 °F 54.5 °F 86% 30.07 in 10.0 mi Calm Calm - N/A   Clear
10:54 PM 56.5 °F 54.1 °F 92% 30.08 in 10.0 mi NNW 3.5 mph - N/A   Clear
11:13 PM 57.4 °F 54.5 °F 90% 30.08 in 10.0 mi Calm Calm - N/A   Clear
11:34 PM 56.7 °F 54.3 °F 92% 30.09 in 10.0 mi Calm Calm - N/A   Clear
11:54 PM 55.8 °F 53.4 °F 92% 30.09 in 10.0 mi West 4.6 mph - N/A   Clear